[[{"header":{"parameterUnit":"m.s-1","parameterCategory":1,"la1":30.2991,"la2":30.254,"lo1":-89.0895,"lo2":-89.0444,"dy":0.0017,"dx":0.0017,"nx":28,"ny":28,"refTime":"2023-09-19T21:00:00:Z","depth":0,"parameterNumber":2,"parameterNumberName":"U-component_of_WINDS"},"data":[0,0,0,0,0,0,0,0,0,0,0,0,0,0,0,0,0,0,0,0,0,0,0,0,0,0,0,0,0,0,0,0,0,0,0,0,0,0,0,0,0,0,0,0,0,0,0,0,0,0,0,0,0,0,0,0,0,0,-5.5717,-5.5718,0,-5.574,-5.574,-5.574,-5.5595,-5.5591,-5.5587,-5.5583,-5.5603,-5.5608,-5.5612,0,0,0,0,0,0,0,0,0,0,0,0,0,-5.5547,-5.5551,-5.5717,-5.5718,-5.5718,-5.5739,-5.574,-5.574,-5.5596,-5.5591,-5.5586,-5.5581,-5.5602,-5.5607,-5.5612,0,0,0,0,0,0,0,0,0,0,0,0,0,-5.5601,-5.5553,-5.5717,-5.5649,-5.5643,-5.5739,-5.574,-5.574,-5.5597,-5.5591,-5.5585,-5.5579,-5.56,-5.5607,-5.5613,-5.5776,0,0,-5.5633,-5.5636,0,0,0,0,0,0,0,0,-5.5598,-5.5607,-5.5659,-5.5654,-5.5647,-5.5658,-5.5687,-5.5752,-5.5598,-5.5614,-5.5583,-5.5576,-5.5627,-5.5631,-5.5648,-5.5777,-5.5778,-5.5634,-5.5638,-5.564,-5.5642,0,0,0,0,0,0,0,-5.5594,-5.5605,-5.5726,-5.5659,-5.5653,-5.5616,-5.5617,-5.5699,-5.5654,-5.5612,-5.5602,-5.5607,-5.5622,-5.5642,-5.5647,-5.5778,-5.5633,-5.5639,-5.5643,-5.5646,-5.6039,-5.6046,0,0,0,0,0,0,-5.56,-5.5603,-5.5725,-5.5727,-5.5607,-5.5624,-5.5625,-5.5661,-5.5653,-5.5646,-5.5612,-5.56,-5.5634,-5.564,-5.5648,-5.5835,-5.564,-5.5646,-5.565,-5.6033,-5.6041,-5.6048,0,0,0,0,0,0,-5.5597,-5.5612,-5.5724,-5.5662,-5.5674,-5.5633,-5.5675,-5.5665,-5.5684,-5.5653,-5.5644,-5.5641,-5.5629,-5.5638,-5.5745,-5.5834,-5.5649,-5.5655,-5.6025,-5.6035,-5.6044,-5.6214,0,0,0,0,0,0,-5.5593,-5.5612,-5.5674,-5.5665,-5.5677,-5.5823,-5.5681,-5.5669,-5.5696,-5.5681,-5.5677,-5.5671,-5.5625,-5.5736,-5.5751,-5.584,-5.566,-5.6017,-5.603,-5.6041,-5.62,-5.6228,-5.6252,0,0,0,0,0,-5.5587,-5.5721,-5.5678,-5.5694,-5.5755,-5.5828,-5.5835,-5.5781,-5.5704,-5.5765,-5.5745,-5.5671,-5.5823,-5.5748,-5.5764,-5.5856,-5.6011,-5.6026,-5.604,-5.6188,-5.6223,-5.6252,0,0,0,0,0,0,-5.5742,-5.5719,-5.5671,-5.5806,-5.582,-5.5803,-5.5879,-5.5819,-5.5855,-5.5839,-5.5769,-5.577,-5.5887,-5.5882,-5.58,-5.6012,-5.5903,-5.5922,-5.601,-5.6043,-5.6068,-5.6065,-5.5666,0,0,0,0,0,-5.5792,-5.5854,-5.5831,-5.5952,-5.5962,-5.592,-5.595,-5.5907,-5.5918,-5.5923,-5.591,-5.5924,-5.5974,-5.6009,-5.6053,-5.62,-5.6195,-5.6271,-5.6297,-5.6319,-5.6334,-5.6409,-5.6441,-5.6096,-5.6096,-5.6096,0,0,-5.5895,-5.589,-5.5934,-5.5983,-5.5989,-5.6053,-5.5926,-5.6,-5.6047,-5.5934,-5.6033,-5.6025,-5.6035,-5.6162,-5.6217,-5.6161,-5.6429,-5.6337,-5.6355,-5.6359,-5.6427,-5.646,-5.6489,-5.6106,-5.6104,-5.6103,0,0,-5.6116,-5.612,-5.622,-5.6229,-5.624,-5.6211,-5.6236,-5.6228,-5.6218,-5.6317,-5.6233,-5.6288,-5.6377,-5.6386,-5.6403,-5.6629,-5.6561,-5.6646,-5.6781,-5.6854,-5.6881,-5.6905,-5.6982,-5.7011,-5.6662,-5.6663,-5.6663,0,-5.6242,-5.6337,-5.6279,-5.6359,-5.6382,-5.6284,-5.6384,-5.6395,-5.642,-5.6438,-5.6376,-5.6484,-5.6485,-5.6611,-5.6666,-5.6684,-5.6708,-5.6644,-5.6882,-5.6906,-5.6927,-5.6999,-5.7029,-5.6673,-5.6671,-5.667,-5.6669,0,-5.6491,-5.6558,-5.6638,-5.6664,-5.6697,-5.6787,-5.6741,-5.6781,-5.6735,-5.6713,-5.6814,-5.6811,-5.6852,-5.688,-5.6837,-5.7,-5.6965,-5.6895,-5.6783,-5.697,-5.7037,-5.7065,-5.6687,-5.6683,-5.668,-5.6678,0,0,-5.6807,-5.6801,-5.6831,-5.684,-5.6846,-5.6896,-5.6981,-5.7022,-5.7056,-5.7078,-5.7145,-5.7223,-5.7157,-5.7177,-5.7134,-5.7199,-5.7374,-5.7119,-5.7118,-5.7164,-5.755,-5.7601,-5.7634,-5.733,-5.7336,-5.734,-5.7548,0,-5.7019,-5.7164,-5.7114,-5.7261,-5.7321,-5.7229,-5.7303,-5.7314,-5.7296,-5.7343,-5.7323,-5.7377,-5.7289,-5.7299,-5.736,-5.734,-5.745,-5.7325,-5.739,-5.7393,-5.7387,-5.7669,-5.7723,-5.792,-5.7574,-5.7579,-5.7582,0,-5.7286,-5.7318,-5.7471,-5.7464,-5.7487,-5.7555,-5.7587,-5.7635,-5.7645,-5.7627,-5.7649,-5.7592,-5.7673,-5.7566,-5.7675,-5.7591,-5.7616,-5.761,-5.7616,-5.7617,-5.7496,-5.7675,-5.7981,-5.801,-5.7623,-5.762,-5.7617,0,-5.7497,-5.7578,-5.7679,-5.7691,-5.7687,-5.7736,-5.7737,-5.7741,-5.7768,-5.7797,-5.7814,-5.7853,-5.7873,-5.7904,-5.7858,-5.7784,-5.7974,-5.7862,-5.7959,-5.796,-5.7999,-5.7997,-5.8311,-5.8022,-5.8022,-5.8021,-5.8021,0,-5.7737,-5.7833,-5.7774,-5.7836,-5.794,-5.7882,-5.7987,-5.7977,-5.7982,-5.8039,-5.7964,-5.8019,-5.7957,-5.8007,-5.7972,-5.8067,-5.8078,-5.8064,-5.8052,-5.8068,-5.807,-5.808,-5.8064,-5.8029,-5.8027,-5.8026,-5.8025,0,-5.7989,-5.7953,-5.8056,-5.8045,-5.8044,-5.8121,-5.811,-5.8166,-5.8144,-5.8217,-5.8231,-5.8195,-5.8249,-5.8208,-5.8261,-5.8238,-5.8362,-5.8333,-5.8358,-5.8349,-5.8446,-5.8436,-5.8775,-5.8815,-5.8505,-5.8508,-5.851,0,-5.8142,-5.8214,-5.821,-5.8243,-5.8249,-5.8304,-5.8331,-5.8278,-5.8309,-5.8326,-5.838,-5.8428,-5.8462,-5.8553,-5.8531,-5.8571,-5.8541,-5.8657,-5.8546,-5.8559,-5.8538,-5.8533,-5.8538,-5.8678,-5.8682,-5.8685,-5.8687,0,-5.8418,-5.8397,-5.844,-5.8477,-5.8513,-5.8539,-5.856,-5.8591,-5.8537,-5.8576,-5.863,-5.8658,-5.8713,-5.876,-5.8793,-5.8792,-5.873,-5.8723,-5.8746,-5.8761,-5.8771,-5.8764,-5.8415,-5.8714,-5.8712,-5.871,-5.8708,-5.8707,-5.8622,-5.8681,-5.8687,-5.8737,-5.8747,-5.8768,-5.882,-5.8804,-5.8849,-5.8888,-5.8855,-5.892,-5.8927,-5.8964,-5.8971,-5.902,-5.8972,-5.9007,-5.9015,-5.9024,-5.9036,-5.8767,-5.9026,-5.9025,-5.9025,-5.9024,-5.9023,0,-5.8891,-5.889,-5.8938,-5.8969,-5.9008,-5.8949,-5.8968,-5.9004,-5.9063,-5.9075,-5.9111,-5.9173,-5.9219,-5.9202,-5.9242,-5.9284,-5.9257,-5.9296,-5.9291,-5.9291,-5.9079,-5.9052,-5.9318,-5.9318,-5.9318,-5.9318,-5.9318,-5.9318,-5.9035,-5.913,-5.911,-5.9209,-5.9207,-5.927,-5.9286,-5.9305,-5.9314,-5.9387,-5.9425,-5.9413,-5.9413,-5.9453,-5.9492,-5.9485,-5.9502,-5.9551,-5.9534,-5.9335,-5.9306,-5.9278,-5.9253,-5.9556,-5.9557,-5.9742,-5.9743,-5.9745]},{"header":{"parameterUnit":"m.s-1","parameterCategory":1,"la1":30.2991,"la2":30.254,"lo1":-89.0895,"lo2":-89.0444,"dy":0.0017,"dx":0.0017,"nx":28,"ny":28,"refTime":"2023-09-19T21:00:00:Z","depth":0,"parameterNumber":3,"parameterNumberName":"V-component_of_WINDS"},"data":[0,0,0,0,0,0,0,0,0,0,0,0,0,0,0,0,0,0,0,0,0,0,0,0,0,0,0,0,0,0,0,0,0,0,0,0,0,0,0,0,0,0,0,0,0,0,0,0,0,0,0,0,0,0,0,0,0,0,-0.8706,-0.8705,0,-0.8598,-0.8597,-0.8596,-0.8597,-0.8599,-0.86,-0.8602,-0.8488,-0.8483,-0.8479,0,0,0,0,0,0,0,0,0,0,0,0,0,-0.8906,-0.8903,-0.8706,-0.8705,-0.8703,-0.8599,-0.8597,-0.8596,-0.8597,-0.8599,-0.8601,-0.8602,-0.8489,-0.8484,-0.8479,0,0,0,0,0,0,0,0,0,0,0,0,0,-0.8811,-0.8901,-0.8706,-0.8692,-0.8689,-0.8599,-0.8597,-0.8595,-0.8597,-0.8599,-0.8601,-0.8603,-0.8491,-0.8484,-0.8478,-0.8394,0,0,-0.8458,-0.8455,0,0,0,0,0,0,0,0,-0.8816,-0.8804,-0.8695,-0.8692,-0.869,-0.8614,-0.8626,-0.8528,-0.8596,-0.8632,-0.8602,-0.8604,-0.8528,-0.8518,-0.8493,-0.8389,-0.8384,-0.8457,-0.8453,-0.8451,-0.8449,0,0,0,0,0,0,0,-0.8823,-0.8808,-0.8663,-0.8693,-0.869,-0.8688,-0.8677,-0.8607,-0.8569,-0.8629,-0.8629,-0.8616,-0.8526,-0.8499,-0.849,-0.8382,-0.8458,-0.8452,-0.8448,-0.8445,-0.8199,-0.8196,0,0,0,0,0,0,-0.8833,-0.8814,-0.8667,-0.866,-0.876,-0.8683,-0.867,-0.8636,-0.857,-0.8562,-0.8614,-0.8617,-0.851,-0.8498,-0.8486,-0.8381,-0.8451,-0.8444,-0.8441,-0.8201,-0.8198,-0.8195,0,0,0,0,0,0,-0.8838,-0.882,-0.8671,-0.8737,-0.8718,-0.8677,-0.8638,-0.8632,-0.8606,-0.8559,-0.8551,-0.8594,-0.8511,-0.8496,-0.8416,-0.8377,-0.8441,-0.8435,-0.8204,-0.82,-0.8197,-0.8171,0,0,0,0,0,0,-0.8843,-0.8822,-0.8791,-0.8736,-0.8714,-0.8605,-0.8636,-0.8629,-0.8595,-0.8596,-0.8538,-0.853,-0.8511,-0.8426,-0.841,-0.8369,-0.843,-0.8208,-0.8203,-0.8198,-0.8176,-0.8167,-0.816,0,0,0,0,0,-0.8851,-0.8789,-0.879,-0.8772,-0.8676,-0.8603,-0.859,-0.8571,-0.8592,-0.8559,-0.8528,-0.8532,-0.8384,-0.8418,-0.84,-0.8357,-0.821,-0.8204,-0.8198,-0.8179,-0.8169,-0.816,0,0,0,0,0,0,-0.884,-0.8781,-0.8782,-0.8701,-0.8657,-0.8603,-0.8562,-0.8561,-0.8509,-0.8513,-0.849,-0.8477,-0.8397,-0.8369,-0.8407,-0.8269,-0.8299,-0.829,-0.8291,-0.8281,-0.8273,-0.8281,-0.8425,0,0,0,0,0,-0.8828,-0.8776,-0.8727,-0.8659,-0.8637,-0.8603,-0.8571,-0.8559,-0.8512,-0.8494,-0.8457,-0.841,-0.8352,-0.8315,-0.826,-0.8171,-0.8157,-0.8132,-0.8124,-0.8118,-0.811,-0.8057,-0.8045,-0.8176,-0.8176,-0.8176,0,0,-0.8804,-0.8765,-0.8733,-0.8656,-0.8621,-0.8564,-0.8588,-0.8528,-0.8485,-0.8484,-0.8407,-0.8378,-0.8323,-0.8238,-0.8198,-0.8212,-0.807,-0.8111,-0.8106,-0.8101,-0.805,-0.8037,-0.8026,-0.8172,-0.8173,-0.8173,0,0,-0.8729,-0.8696,-0.8635,-0.8598,-0.8544,-0.8521,-0.8506,-0.8452,-0.8433,-0.8355,-0.8352,-0.8299,-0.8202,-0.8162,-0.8129,-0.8035,-0.8035,-0.8017,-0.7976,-0.7925,-0.7915,-0.7905,-0.7869,-0.7857,-0.8009,-0.8009,-0.8009,0,-0.8705,-0.8622,-0.8603,-0.8542,-0.8507,-0.8503,-0.8439,-0.8404,-0.8334,-0.8309,-0.8325,-0.82,-0.8164,-0.8067,-0.8044,-0.8018,-0.7998,-0.8024,-0.7918,-0.7908,-0.7899,-0.7865,-0.7851,-0.8007,-0.8007,-0.8008,-0.8008,0,-0.8593,-0.8535,-0.8492,-0.8424,-0.8384,-0.8322,-0.8291,-0.8252,-0.8243,-0.8218,-0.8136,-0.8091,-0.8025,-0.8001,-0.7993,-0.7902,-0.7912,-0.7923,-0.7953,-0.7885,-0.7852,-0.7839,-0.8004,-0.8005,-0.8006,-0.8006,0,0,-0.8511,-0.8432,-0.8416,-0.8384,-0.8322,-0.8276,-0.8211,-0.8147,-0.8113,-0.8064,-0.8007,-0.7923,-0.7932,-0.7894,-0.7881,-0.7836,-0.776,-0.7852,-0.785,-0.7835,-0.7654,-0.7645,-0.763,-0.776,-0.7757,-0.7755,-0.7658,0,-0.8429,-0.8317,-0.8296,-0.8198,-0.8141,-0.8135,-0.8079,-0.8033,-0.8006,-0.7953,-0.7923,-0.7863,-0.7881,-0.7857,-0.7813,-0.7779,-0.7723,-0.7786,-0.7705,-0.7702,-0.7718,-0.7613,-0.7604,-0.7515,-0.7645,-0.7643,-0.7641,0,-0.8319,-0.8267,-0.8162,-0.8104,-0.808,-0.803,-0.7967,-0.7917,-0.7864,-0.7847,-0.7803,-0.7793,-0.7723,-0.7756,-0.7657,-0.77,-0.7665,-0.7643,-0.7639,-0.763,-0.7667,-0.76,-0.7486,-0.7472,-0.7621,-0.7623,-0.7624,0,-0.8267,-0.817,-0.8094,-0.8067,-0.7998,-0.7963,-0.7932,-0.7881,-0.7842,-0.7787,-0.7761,-0.7698,-0.7663,-0.7613,-0.7585,-0.7612,-0.7487,-0.7518,-0.7469,-0.7469,-0.7443,-0.7445,-0.732,-0.7422,-0.7423,-0.7423,-0.7423,0,-0.8177,-0.8113,-0.807,-0.8023,-0.7949,-0.7924,-0.7852,-0.7821,-0.7775,-0.772,-0.771,-0.7658,-0.7625,-0.7568,-0.7545,-0.7465,-0.745,-0.7432,-0.7427,-0.7432,-0.7434,-0.7409,-0.7414,-0.7419,-0.742,-0.7421,-0.7421,0,-0.8107,-0.8076,-0.7992,-0.7933,-0.7916,-0.7864,-0.7813,-0.7765,-0.7738,-0.7668,-0.765,-0.7606,-0.7537,-0.7504,-0.7419,-0.7404,-0.7312,-0.7311,-0.733,-0.7328,-0.728,-0.7284,-0.7134,-0.7111,-0.723,-0.7229,-0.7228,0,-0.8051,-0.8001,-0.7936,-0.7899,-0.7867,-0.7808,-0.7768,-0.774,-0.7698,-0.7631,-0.7591,-0.7522,-0.7466,-0.7355,-0.7314,-0.7248,-0.7245,-0.7196,-0.7235,-0.7241,-0.7241,-0.7244,-0.7238,-0.719,-0.7188,-0.7188,-0.7187,0,-0.7955,-0.7941,-0.7885,-0.7821,-0.7774,-0.7723,-0.7672,-0.7642,-0.7605,-0.7558,-0.7488,-0.7444,-0.7356,-0.7286,-0.7217,-0.7182,-0.7177,-0.7175,-0.716,-0.7164,-0.7176,-0.7167,-0.731,-0.7179,-0.7179,-0.718,-0.718,-0.7181,-0.7888,-0.7843,-0.7789,-0.7725,-0.7684,-0.7636,-0.7587,-0.7553,-0.7494,-0.7421,-0.7407,-0.7332,-0.7275,-0.7181,-0.7144,-0.7083,-0.7093,-0.7072,-0.7066,-0.7061,-0.7057,-0.7187,-0.707,-0.707,-0.707,-0.7071,-0.7071,0,-0.779,-0.7754,-0.7695,-0.7624,-0.7573,-0.7573,-0.7516,-0.7473,-0.7407,-0.7355,-0.7299,-0.7216,-0.7147,-0.71,-0.7029,-0.6989,-0.6984,-0.6971,-0.6973,-0.6965,-0.7053,-0.7072,-0.6976,-0.6976,-0.6976,-0.6976,-0.6976,-0.6976,-0.7732,-0.7653,-0.7632,-0.7531,-0.7495,-0.7422,-0.7389,-0.7343,-0.7301,-0.7209,-0.7152,-0.7122,-0.707,-0.6996,-0.6931,-0.6919,-0.6892,-0.6879,-0.6866,-0.6949,-0.6959,-0.6969,-0.6986,-0.6874,-0.6873,-0.6783,-0.6782,-0.6781]}]]